| time (UTC) | temp C | wind direction | speed KPH | gust KPH | rain 1hr cm | rain 24hr cm | rain mn cm | humidity % | barometer mb |
| 20260502123004 | 1 | 133 | 0.0 | 0.0 | 0.00 | 0.00 | 0.00 | 97 | 1018.9 |
| 20260502122004 | 1 | 130 | 0.0 | 0.0 | 0.00 | 0.00 | 0.00 | 96 | 1018.9 |
| 20260502121004 | 0 | 130 | 0.0 | 0.0 | 0.00 | 0.00 | 0.00 | 96 | 1019.0 |
| 20260502115003 | 0 | 130 | 0.0 | 0.0 | 0.00 | 0.00 | 0.00 | 96 | 1019.0 |
| 20260502114004 | 0 | 130 | 0.0 | 0.0 | 0.00 | 0.00 | 0.00 | 95 | 1018.9 |
| 20260502113003 | 0 | 130 | 0.0 | 0.0 | 0.00 | 0.00 | 0.00 | 95 | 1018.8 |
| 20260502112003 | 0 | 130 | 0.0 | 0.0 | 0.00 | 0.00 | 0.00 | 95 | 1018.8 |
| 20260502111003 | -1 | 130 | 0.0 | 0.0 | 0.00 | 0.00 | 0.00 | 94 | 1018.7 |
| 20260502105003 | -1 | 130 | 0.0 | 0.0 | 0.00 | 0.00 | 0.00 | 94 | 1018.7 |
| 20260502104004 | -1 | 130 | 0.0 | 0.0 | 0.00 | 0.00 | 0.00 | 94 | 1018.7 |
| 20260502103004 | -1 | 130 | 0.0 | 0.0 | 0.00 | 0.00 | 0.00 | 93 | 1018.7 |
| 20260502102003 | 0 | 130 | 0.0 | 0.0 | 0.00 | 0.00 | 0.00 | 94 | 1018.6 |
| 20260502101003 | 0 | 130 | 0.0 | 0.0 | 0.00 | 0.00 | 0.00 | 93 | 1018.6 |
| 20260502091005 | -1 | 130 | 0.0 | 0.0 | 0.00 | 0.00 | 0.00 | 93 | 1018.5 |
| 20260502071003 | 0 | 130 | 0.0 | 0.0 | 0.00 | 0.00 | 0.00 | 92 | 1018.4 |
| 20260502065005 | 0 | 130 | 0.0 | 0.0 | 0.00 | 0.00 | 0.00 | 92 | 1018.5 |
| 20260502064003 | 0 | 130 | 0.0 | 0.0 | 0.00 | 0.00 | 0.00 | 91 | 1018.6 |
| 20260502062003 | 0 | 130 | 0.0 | 0.0 | 0.00 | 0.00 | 0.00 | 91 | 1018.8 |
| 20260502061004 | 0 | 130 | 0.0 | 0.0 | 0.00 | 0.00 | 0.00 | 90 | 1018.7 |
| 20260502055003 | 0 | 130 | 0.0 | 0.0 | 0.00 | 0.00 | 0.00 | 90 | 1018.7 |
| 20260502054004 | 0 | 130 | 0.0 | 0.0 | 0.00 | 0.00 | 0.00 | 89 | 1018.7 |
| 20260502053004 | 0 | 130 | 0.0 | 0.0 | 0.00 | 0.00 | 0.00 | 89 | 1018.7 |
| 20260502052004 | 0 | 130 | 0.0 | 0.0 | 0.00 | 0.00 | 0.00 | 89 | 1018.7 |
| 20260502050006 | 1 | 130 | 0.0 | 0.0 | 0.00 | 0.00 | 0.00 | 88 | 1018.7 |
| 20260502042003 | 2 | 130 | 0.0 | 0.0 | 0.00 | 0.00 | 0.00 | 86 | 1018.6 |
| 20260502041004 | 2 | 130 | 0.0 | 0.0 | 0.00 | 0.00 | 0.00 | 86 | 1018.6 |
| 20260502040004 | 2 | 130 | 0.0 | 0.0 | 0.00 | 0.00 | 0.00 | 85 | 1018.7 |
| 20260502035005 | 2 | 130 | 0.0 | 0.0 | 0.00 | 0.00 | 0.00 | 85 | 1018.6 |
| 20260502034003 | 2 | 130 | 0.0 | 0.0 | 0.00 | 0.00 | 0.00 | 85 | 1018.5 |
| 20260502032003 | 2 | 130 | 0.0 | 0.0 | 0.00 | 0.00 | 0.00 | 83 | 1018.6 |
| 20260502025005 | 3 | 130 | 0.0 | 0.0 | 0.00 | 0.00 | 0.00 | 79 | 1018.4 |
| 20260502024003 | 3 | 130 | 0.0 | 0.0 | 0.00 | 0.00 | 0.00 | 77 | 1018.4 |
| 20260502023003 | 3 | 130 | 0.0 | 0.0 | 0.00 | 0.00 | 0.00 | 76 | 1018.4 |
| 20260502022004 | 3 | 130 | 0.0 | 0.0 | 0.00 | 0.00 | 0.00 | 75 | 1018.3 |
| 20260502021003 | 4 | 130 | 0.0 | 0.0 | 0.00 | 0.00 | 0.00 | 75 | 1018.3 |
| 20260502014004 | 4 | 130 | 0.0 | 0.0 | 0.00 | 0.00 | 0.00 | 72 | 1018.1 |
| 20260502013003 | 4 | 130 | 0.0 | 0.0 | 0.00 | 0.00 | 0.00 | 71 | 1018.0 |
| 20260502010004 | 5 | 130 | 0.0 | 1.6 | 0.00 | 0.00 | 0.00 | 71 | 1017.8 |
| 20260502005004 | 5 | 130 | 0.0 | 3.2 | 0.00 | 0.00 | 0.00 | 71 | 1017.8 |
| 20260502004004 | 5 | 130 | 0.0 | 3.2 | 0.00 | 0.00 | 0.00 | 70 | 1017.7 |
| 20260502003003 | 5 | 130 | 3.2 | 4.8 | 0.00 | 0.00 | 0.00 | 67 | 1017.6 |
| 20260502002003 | 5 | 130 | 3.2 | 3.2 | 0.00 | 0.00 | 0.00 | 67 | 1017.6 |
| 20260502001004 | 5 | 130 | 1.6 | 4.8 | 0.00 | 0.00 | 0.00 | 66 | 1017.6 |
| 20260502000004 | 5 | 130 | 1.6 | 4.8 | 0.00 | 0.00 | 0.00 | 67 | 1017.6 |
| 20260501235004 | 5 | 131 | 1.6 | 6.4 | 0.00 | 0.00 | 0.00 | 68 | 1017.6 |
| 20260501233003 | 6 | 131 | 1.6 | 4.8 | 0.00 | 0.00 | 0.00 | 67 | 1017.6 |
| 20260501231004 | 6 | 140 | 0.0 | 8.0 | 0.00 | 0.00 | 0.00 | 65 | 1017.6 |
| 20260501230004 | 6 | 113 | 4.8 | 8.0 | 0.00 | 0.00 | 0.00 | 67 | 1017.7 |
| 20260501225003 | 6 | 115 | 0.0 | 4.8 | 0.00 | 0.00 | 0.00 | 66 | 1017.6 |
| 20260501224003 | 6 | 115 | 3.2 | 4.8 | 0.00 | 0.00 | 0.00 | 65 | 1017.6 |
| 20260501222003 | 6 | 117 | 4.8 | 8.0 | 0.00 | 0.00 | 0.00 | 65 | 1017.7 |
| 20260501221004 | 6 | 110 | 4.8 | 6.4 | 0.00 | 0.00 | 0.00 | 65 | 1017.6 |
| 20260501215004 | 6 | 115 | 0.0 | 4.8 | 0.00 | 0.00 | 0.00 | 66 | 1017.6 |
| 20260501214003 | 6 | 115 | 4.8 | 8.0 | 0.00 | 0.00 | 0.00 | 66 | 1017.6 |
| 20260501212003 | 5 | 100 | 1.6 | 8.0 | 0.00 | 0.00 | 0.00 | 66 | 1017.5 |
| 20260501211004 | 5 | 82 | 3.2 | 6.4 | 0.00 | 0.00 | 0.00 | 66 | 1017.5 |
| 20260501205004 | 5 | 77 | 3.2 | 6.4 | 0.00 | 0.00 | 0.00 | 68 | 1017.5 |
| 20260501204003 | 5 | 91 | 1.6 | 8.0 | 0.00 | 0.00 | 0.00 | 64 | 1017.4 |
| 20260501203004 | 5 | 40 | 4.8 | 6.4 | 0.00 | 0.00 | 0.00 | 67 | 1017.4 |
| 20260501202004 | 6 | 11 | 3.2 | 8.0 | 0.00 | 0.00 | 0.00 | 64 | 1017.5 |
| 20260501201003 | 6 | 82 | 6.4 | 6.4 | 0.00 | 0.00 | 0.00 | 68 | 1017.5 |
| 20260501200004 | 6 | 103 | 1.6 | 8.0 | 0.00 | 0.00 | 0.00 | 67 | 1017.5 |
| 20260501195004 | 5 | 107 | 4.8 | 8.0 | 0.00 | 0.00 | 0.00 | 67 | 1017.4 |
| 20260501192003 | 5 | 42 | 3.2 | 8.0 | 0.00 | 0.00 | 0.00 | 72 | 1017.4 |
| 20260501191003 | 5 | 11 | 6.4 | 8.0 | 0.00 | 0.00 | 0.00 | 73 | 1017.2 |
| 20260501185003 | 6 | 19 | 1.6 | 9.7 | 0.00 | 0.00 | 0.00 | 76 | 1017.1 |
| 20260501184003 | 6 | 61 | 6.4 | 8.0 | 0.00 | 0.00 | 0.00 | 72 | 1017.1 |
| 20260501183003 | 6 | 77 | 3.2 | 9.7 | 0.00 | 0.00 | 0.00 | 74 | 1017.0 |
| 20260501182005 | 6 | 106 | 3.2 | 11.3 | 0.00 | 0.00 | 0.00 | 76 | 1016.9 |
| 20260501181003 | 6 | 36 | 4.8 | 8.0 | 0.00 | 0.00 | 0.00 | 77 | 1016.8 |
| 20260501180005 | 5 | 92 | 3.2 | 9.7 | 0.00 | 0.00 | 0.00 | 77 | 1017.0 |
| 20260501175003 | 5 | 77 | 4.8 | 8.0 | 0.00 | 0.00 | 0.00 | 76 | 1017.1 |
| 20260501174003 | 5 | 114 | 4.8 | 8.0 | 0.00 | 0.00 | 0.00 | 79 | 1017.0 |
| 20260501172003 | 4 | 12 | 3.2 | 14.5 | 0.00 | 0.00 | 0.00 | 80 | 1017.0 |
| 20260501171003 | 4 | 19 | 3.2 | 12.9 | 0.00 | 0.00 | 0.00 | 79 | 1016.9 |
| 20260501170004 | 5 | 95 | 3.2 | 14.5 | 0.00 | 0.00 | 0.00 | 80 | 1016.8 |
| 20260501165004 | 5 | 41 | 1.6 | 14.5 | 0.00 | 0.00 | 0.00 | 81 | 1016.8 |
| 20260501164005 | 4 | 96 | 4.8 | 19.3 | 0.00 | 0.00 | 0.00 | 82 | 1016.8 |
| 20260501163003 | 4 | 77 | 4.8 | 14.5 | 0.00 | 0.00 | 0.00 | 81 | 1017.0 |
| 20260501161003 | 4 | 82 | 14.5 | 14.5 | 0.00 | 0.00 | 0.00 | 85 | 1016.8 |
| 20260501155003 | 4 | 59 | 3.2 | 8.0 | 0.00 | 0.00 | 0.00 | 87 | 1016.6 |
| 20260501154004 | 4 | 82 | 6.4 | 20.9 | 0.00 | 0.00 | 0.00 | 84 | 1016.8 |
| 20260501153004 | 5 | 94 | 6.4 | 14.5 | 0.00 | 0.00 | 0.00 | 85 | 1016.7 |
| 20260501152005 | 5 | 48 | 8.0 | 16.1 | 0.00 | 0.00 | 0.00 | 85 | 1016.6 |
| 20260501151004 | 5 | 7 | 8.0 | 12.9 | 0.00 | 0.00 | 0.00 | 84 | 1016.5 |
| 20260501150004 | 5 | 22 | 4.8 | 16.1 | 0.00 | 0.00 | 0.00 | 81 | 1016.5 |